Flag for Afghanistan Weather past 2 weeks in Mazari Sharif, Afghanistan

Now
41 °F

Passing clouds.


Feels Like: 38 °F
Forecast: 43 / 74 °F
Wind: 5 mph from Northeast

Location: Termez Airport

Current Time: Apr 2, 2015 at 4:47:02 AM

Latest Report: Apr 2, 2015 at 3:30 AM


Visibility: N/A

Pressure: 30.04 "Hg

Humidity: 100%

Dew point: 41 °F

Location of Mazari SharifLocation

Historic Weather in Mazari Sharif — Graph

°F

Mazari Sharif temperature yesterday

Maximum temperature yesterday: 52 °F (at 12:00 AM)
Minimum temperature yesterday: 41 °F (at 6:30 AM)
Average temperature yesterday: 44 °F

Past Weeks' High & Low Weather Summary

 TemperatureHumidityPressure
High90 °F (Mar 23, 2:00 PM)100% (Mar 19, 3:30 AM)30.36 "Hg (Mar 19, 3:30 AM)
Low34 °F (Mar 30, 6:00 PM)14% (Mar 23, 2:00 PM)29.62 "Hg (Mar 23, 11:30 PM)
Average57 °F68%30.09 "Hg
* Reported Mar 18 2:30 AM — Apr 2 2:30 AM, Mazari Sharif, Weather by CustomWeather, © 2015

Note: Actual official high and low records may vary slightly from our data, if they occured in-between our weather recording intervals... More about our weather records

Advertising

Mazari Sharif weather history for previous 24 hours

 ConditionsComfort  
Time TempWeatherWind HumidityBarometerVisibility
2:30 AM
Thu, Apr 2
43 °FPassing clouds.6 mph100%30.04 "HgN/A
1:30 AM45 °FPassing clouds.7 mph100%30.07 "HgN/A
12:30 AM45 °FPartly cloudy.7 mph100%30.07 "HgN/A
11:30 PM
Wed, Apr 1
45 °FPartly cloudy.3 mph93%30.09 "HgN/A
10:30 PM43 °FMostly cloudy.3 mph100%30.09 "HgN/A
10:00 PM45 °FMostly cloudy.3 mph93%30.09 "HgN/A
9:30 PM45 °FMostly cloudy.5 mph93%30.09 "HgN/A
9:00 PM45 °FMostly cloudy.2 mph93%30.09 "HgN/A
8:30 PM45 °FMostly cloudy.No wind93%30.09 "HgN/A
7:30 PM45 °FMostly cloudy.3 mph93%30.07 "HgN/A
7:00 PM45 °FMostly cloudy.2 mph93%30.07 "HgN/A
6:30 PM45 °FMostly cloudy.5 mph93%30.04 "HgN/A
6:00 PM45 °FMostly cloudy.7 mph93%30.04 "HgN/A
5:30 PM45 °FMostly cloudy.8 mph93%30.04 "HgN/A
5:00 PM45 °FMostly cloudy.8 mph93%30.01 "HgN/A
4:30 PM45 °FMostly cloudy.14 mph93%30.01 "HgN/A
4:00 PM45 °FMostly cloudy.14 mph93%29.98 "HgN/A
3:30 PM45 °FMostly cloudy.15 mph93%29.98 "HgN/A
3:00 PM45 °FMostly cloudy.15 mph93%29.98 "HgN/A
2:30 PM45 °FMostly cloudy.15 mph93%29.98 "HgN/A
2:00 PM45 °FMostly cloudy.17 mph93%29.98 "HgN/A
1:30 PM43 °FMostly cloudy.14 mph93%29.98 "HgN/A
1:00 PM41 °FSprinkles. Mostly cloudy.15 mph100%29.98 "HgN/A
12:30 PM41 °FSprinkles. Fog.17 mph100%29.98 "Hg2 mi
12:00 PM41 °FSprinkles. Fog.20 mph100%29.98 "Hg3 mi
11:30 AM41 °FSprinkles. Mostly cloudy.16 mph100%29.95 "Hg4 mi
11:00 AM41 °FSprinkles. Mostly cloudy.20 mph100%29.98 "Hg6 mi
10:30 AM41 °FSprinkles. Mostly cloudy.18 mph100%29.95 "Hg6 mi
10:00 AM41 °FMostly cloudy.15 mph100%29.95 "Hg4 mi
9:30 AM41 °FSprinkles. Mostly cloudy.14 mph100%29.92 "Hg4 mi
9:00 AM41 °FSprinkles. Mostly cloudy.15 mph93%29.95 "Hg4 mi
8:30 AM41 °FSprinkles. Mostly cloudy.16 mph100%29.95 "Hg4 mi
8:00 AM41 °FSprinkles. Fog.17 mph100%29.92 "Hg3 mi
7:30 AM41 °FFog.15 mph100%29.92 "Hg3 mi
7:00 AM41 °FSprinkles. Fog.17 mph100%29.92 "Hg2 mi
6:30 AM41 °FFog.16 mph100%29.89 "Hg2 mi
6:00 AM43 °FSprinkles. Fog.13 mph100%29.89 "Hg1 mi
5:30 AM43 °FSprinkles. Fog.16 mph100%29.89 "Hg1 mi
5:00 AM43 °FFog.17 mph100%29.86 "Hg2 mi
4:30 AM45 °FFog.16 mph93%29.86 "Hg2 mi
4:00 AM45 °FFog.17 mph100%29.86 "Hg3 mi
Weather by CustomWeather, © 2015

See weather overviewHow to use our weather pages